Flag for Vietnam Weather past 2 weeks in Ho Chi Minh, Vietnam

Now
84 °F

Scattered clouds.


Feels Like: 91 °F
Forecast: 75 / 87 °F
Wind: 6 mph from Southeast

Location: Ho Chi Minh

Current Time: Dec 21, 2014 at 5:52:03 PM

Latest Report: Dec 21, 2014 at 5:30 PM


Visibility: N/A

Pressure: 29.77 "Hg

Humidity: 70%

Dew point: 73 °F

Location of Ho Chi MinhLocation

Historic Weather in Ho Chi Minh — Graph

°F

Ho Chi Minh temperature yesterday

Maximum temperature yesterday: 91 °F (at 1:00 PM)
Minimum temperature yesterday: 73 °F (at 3:00 AM)
Average temperature yesterday: 81 °F

Past Weeks' High & Low Weather Summary

 TemperatureHumidityPressure
High93 °F (Dec 14, 2:30 PM)94% (Dec 7, 6:30 AM)29.98 "Hg (Dec 7, 6:30 AM)
Low72 °F (Dec 10, 5:00 AM)36% (Dec 10, 2:00 PM)29.74 "Hg (Dec 7, 4:00 PM)
Average81 °F67%29.86 "Hg
* Reported Dec 6 4:00 PM — Dec 21 4:30 PM, Ho Chi Minh, Weather by CustomWeather, © 2014

Note: Actual official high and low records may vary slightly from our data, if they occured in-between our weather recording intervals... More about our weather records

Advertising

Ho Chi Minh weather history for previous 24 hours

 ConditionsComfort  
Time TempWeatherWind HumidityBarometerVisibility
4:30 PM
Dec 21
88 °FScattered clouds.2 mph59%29.74 "Hg5 mi
4:00 PM88 °FScattered clouds.5 mph59%29.74 "Hg5 mi
3:30 PM90 °FScattered clouds.2 mph49%29.74 "HgN/A
3:00 PM90 °FPartly sunny.2 mph52%29.74 "HgN/A
2:30 PM90 °FPartly sunny.6 mph49%29.74 "HgN/A
2:00 PM90 °FPartly sunny.3 mph49%29.77 "HgN/A
1:30 PM91 °FPartly sunny.2 mph49%29.77 "HgN/A
1:00 PM91 °FScattered clouds.1 mph49%29.80 "HgN/A
12:30 PM91 °FScattered clouds.2 mph49%29.80 "HgN/A
12:00 PM90 °FScattered clouds.2 mph52%29.83 "HgN/A
11:30 AM90 °FPassing clouds.1 mph49%29.83 "HgN/A
11:00 AM86 °FPassing clouds.3 mph59%29.83 "HgN/A
10:30 AM86 °FPassing clouds.2 mph55%29.86 "HgN/A
10:00 AM84 °FPassing clouds.1 mph58%29.86 "HgN/A
9:30 AM84 °FPassing clouds.2 mph58%29.86 "HgN/A
9:00 AM82 °FPassing clouds.3 mph62%29.86 "HgN/A
8:30 AM81 °FPassing clouds.3 mph66%29.86 "HgN/A
8:00 AM79 °FScattered clouds.3 mph65%29.86 "HgN/A
7:30 AM77 °FScattered clouds.3 mph69%29.86 "HgN/A
7:00 AM75 °FScattered clouds.3 mph74%29.83 "HgN/A
6:30 AM73 °FScattered clouds.6 mph78%29.80 "HgN/A
6:00 AM73 °FPassing clouds.3 mph83%29.80 "HgN/A
4:30 AM75 °FPassing clouds.6 mph74%29.80 "HgN/A
4:00 AM75 °FPassing clouds.5 mph78%29.80 "HgN/A
3:30 AM75 °FPassing clouds.2 mph78%29.77 "HgN/A
3:00 AM75 °FPassing clouds.3 mph78%29.77 "HgN/A
2:30 AM75 °FPassing clouds.1 mph78%29.80 "HgN/A
2:00 AM75 °FPassing clouds.2 mph78%29.80 "HgN/A
1:30 AM75 °FPassing clouds.1 mph78%29.83 "HgN/A
1:00 AM77 °FPassing clouds.3 mph74%29.83 "HgN/A
12:30 AM77 °FPassing clouds.5 mph74%29.83 "HgN/A
12:00 AM79 °FPassing clouds.6 mph74%29.83 "HgN/A
11:30 PM
Dec 20
79 °FPassing clouds.5 mph84%29.86 "HgN/A
11:00 PM79 °FPassing clouds.5 mph84%29.86 "HgN/A
10:30 PM79 °FPassing clouds.3 mph84%29.86 "HgN/A
10:00 PM81 °FPassing clouds.2 mph74%29.89 "HgN/A
9:30 PM81 °FPassing clouds.1 mph70%29.89 "HgN/A
9:00 PM81 °FPassing clouds.1 mph70%29.86 "HgN/A
8:30 PM81 °FPartly cloudy.5 mph74%29.86 "HgN/A
8:00 PM81 °FPartly cloudy.3 mph74%29.86 "HgN/A
7:30 PM82 °FPartly cloudy.6 mph70%29.86 "HgN/A
7:00 PM82 °FPartly cloudy.3 mph70%29.83 "HgN/A
6:30 PM82 °FPassing clouds.7 mph70%29.83 "HgN/A
6:00 PM82 °FPassing clouds.6 mph70%29.80 "HgN/A
5:30 PM84 °FPartly sunny.10 mph66%29.80 "HgN/A
5:00 PM86 °FPartly sunny.6 mph59%29.77 "HgN/A
Weather by CustomWeather, © 2014

See weather overviewHow to use our weather pages